^^
Garrymore Weather Station Historical Data
Daily Summary for October 27, 2020 Units:  English    Metric   Both
Daily Weekly Monthly Yearly Custom
  High: Low: Average:
Temperature: 51.8 °F 42.8 °F 46.8 °F
Dew Point: 48.2 °F -5.8 °F 39.4 °F
Humidity: 93% 10% 82%
Wind Speed: 57.8mph 0mph 7.2mph
Wind Gust: 57.8mph - -
Wind- - South
Pressure: 29.6 in 29.3 in -
Precipitation: 0.09 in    
Historical Graphs
 
 
Tabular Data for October 27, 2020
Time Temperature Dew Point Pressure Wind Wind Speed Wind Gust Humidity Rainfall Rate (Hourly) solar
00:00 42.8 °F 37.4 °F 29.6 in SSE 5 mph 8.1 mph 82% 0 in 0 W/m2
00:05 42.8 °F 37.4 °F 29.5 in SSE 3.1 mph 8.1 mph 82% 0 in 0 W/m2
00:10 42.8 °F 37.4 °F 29.5 in S 6.2 mph 8.7 mph 82% 0 in 0 W/m2
00:15 42.8 °F 37.4 °F 29.5 in S 3.1 mph 6.8 mph 82% 0 in 0 W/m2
00:20 42.8 °F 37.4 °F 29.5 in SSE 3.1 mph 6.8 mph 82% 0 in 0 W/m2
00:25 42.8 °F 37.4 °F 29.5 in SSE 5 mph 8.1 mph 82% 0 in 0 W/m2
00:30 42.8 °F 37.4 °F 29.5 in SSE 6.2 mph 8.7 mph 82% 0 in 0 W/m2
00:35 42.8 °F 37.4 °F 29.5 in SSE 5 mph 8.7 mph 83% 0 in 0 W/m2
00:40 42.8 °F 37.4 °F 29.5 in SSE 3.1 mph 6.8 mph 83% 0 in 0 W/m2
00:45 42.8 °F 37.4 °F 29.5 in SSE 3.1 mph 6.2 mph 83% 0 in 0 W/m2
00:50 42.8 °F 37.4 °F 29.5 in SSE 3.1 mph 6.2 mph 83% 0 in 0 W/m2
00:55 42.8 °F 37.4 °F 29.5 in SSE 3.1 mph 5 mph 83% 0 in 0 W/m2
01:00 42.8 °F 37.4 °F 29.5 in SSE 1.2 mph 5 mph 83% 0 in 0 W/m2
01:05 42.8 °F 37.4 °F 29.5 in SSE 1.2 mph 1.9 mph 83% 0 in 0 W/m2
01:10 42.8 °F 37.4 °F 29.5 in SSE 1.2 mph 3.1 mph 83% 0 in 0 W/m2
01:15 42.8 °F 37.4 °F 29.5 in SE 5 mph 6.8 mph 83% 0 in 0 W/m2
01:20 42.8 °F 37.4 °F 29.5 in SSE 6.2 mph 8.1 mph 83% 0 in 0 W/m2
01:25 42.8 °F 37.4 °F 29.5 in SSE 6.2 mph 8.7 mph 83% 0 in 0 W/m2
01:30 42.8 °F 39.2 °F 29.5 in SSE 5 mph 8.7 mph 84% 0 in 0 W/m2
01:35 42.8 °F 39.2 °F 29.5 in SSE 3.1 mph 6.8 mph 84% 0 in 0 W/m2
01:40 42.8 °F 39.2 °F 29.5 in SSE 3.1 mph 8.1 mph 85% 0 in 0 W/m2
01:45 42.8 °F 39.2 °F 29.5 in SSE 1.2 mph 5 mph 85% 0 in 0 W/m2
01:50 42.8 °F 39.2 °F 29.5 in SSE 1.9 mph 3.7 mph 85% 0 in 0 W/m2
01:55 42.8 °F 39.2 °F 29.5 in SSE 1.2 mph 3.7 mph 85% 0.01 in 0 W/m2
02:00 42.8 °F 39.2 °F 29.5 in E 1.2 mph 3.1 mph 86% 0 in 0 W/m2
02:05 42.8 °F 39.2 °F 29.5 in Calm   3.1 mph 86% 0 in 0 W/m2
02:10 42.8 °F 39.2 °F 29.5 in Calm   3.1 mph 86% 0 in 0 W/m2
02:15 42.8 °F 39.2 °F 29.5 in Calm   3.7 mph 86% 0 in 0 W/m2
02:20 42.8 °F 39.2 °F 29.5 in ENE 3.1 mph 5 mph 86% 0 in 0 W/m2
02:25 42.8 °F 39.2 °F 29.4 in ENE 1.2 mph 5 mph 86% 0 in 0 W/m2
02:30 42.8 °F 39.2 °F 29.4 in ENE 1.2 mph 3.7 mph 86% 0 in 0 W/m2
02:35 42.8 °F 39.2 °F 29.4 in ENE 1.2 mph 3.7 mph 86% 0 in 0 W/m2
02:40 42.8 °F 39.2 °F 29.4 in ESE 3.1 mph 6.2 mph 86% 0 in 0 W/m2
02:45 42.8 °F 39.2 °F 29.4 in SE 1.2 mph 6.2 mph 86% 0 in 0 W/m2
02:50 44.6 °F 39.2 °F 29.4 in E 3.1 mph 6.2 mph 87% 0 in 0 W/m2
02:55 42.8 °F 39.2 °F 29.4 in ESE 3.1 mph 8.1 mph 87% 0 in 0 W/m2
03:00 44.6 °F 39.2 °F 29.4 in ESE 6.2 mph 8.1 mph 87% 0 in 0 W/m2
03:05 44.6 °F 39.2 °F 29.4 in SE 1.2 mph 8.1 mph 87% 0 in 0 W/m2
03:10 44.6 °F 41 °F 29.4 in S 5 mph 6.2 mph 87% 0 in 0 W/m2
03:15 44.6 °F 41 °F 29.4 in E 5 mph 8.1 mph 88% 0 in 0 W/m2
03:20 44.6 °F 41 °F 29.4 in ESE 1.9 mph 8.1 mph 88% 0 in 0 W/m2
03:25 44.6 °F 41 °F 29.4 in SSE 3.1 mph 6.2 mph 88% 0 in 0 W/m2
03:30 44.6 °F 41 °F 29.4 in SE 6.8 mph 11.2 mph 88% 0 in 0 W/m2
03:35 44.6 °F 41 °F 29.4 in SE 3.1 mph 9.9 mph 88% 0 in 0 W/m2
03:40 44.6 °F 41 °F 29.4 in SE 6.2 mph 8.1 mph 87% 0 in 0 W/m2
03:45 44.6 °F 41 °F 29.4 in ESE 6.2 mph 9.9 mph 87% 0 in 0 W/m2
03:50 44.6 °F 41 °F 29.4 in SE 6.2 mph 8.7 mph 88% 0 in 0 W/m2
03:55 44.6 °F 41 °F 29.4 in SSE 3.1 mph 8.1 mph 88% 0 in 0 W/m2
04:00 44.6 °F 42.8 °F 29.4 in SE 3.1 mph 11.2 mph 89% 0 in 0 W/m2
04:05 44.6 °F 42.8 °F 29.4 in SE 6.2 mph 13 mph 89% 0 in 0 W/m2
04:10 46.4 °F 42.8 °F 29.3 in SSE 5 mph 13 mph 90% 0 in 0 W/m2
04:15 46.4 °F 42.8 °F 29.3 in SSE 5 mph 11.2 mph 90% 0 in 0 W/m2
04:20 46.4 °F 42.8 °F 29.3 in SSE 3.1 mph 9.9 mph 90% 0 in 0 W/m2
04:25 46.4 °F 42.8 °F 29.3 in SE 6.2 mph 11.2 mph 91% 0 in 0 W/m2
04:30 46.4 °F 42.8 °F 29.3 in SSE 6.2 mph 14.3 mph 91% 0 in 0 W/m2
04:35 46.4 °F 44.6 °F 29.3 in S 8.1 mph 13 mph 91% 0 in 0 W/m2
04:40 46.4 °F 44.6 °F 29.3 in SSE 6.8 mph 14.3 mph 92% 0 in 0 W/m2
04:45 46.4 °F 44.6 °F 29.3 in SSE 6.2 mph 14.3 mph 91% 0 in 0 W/m2
04:50 46.4 °F 44.6 °F 29.3 in SSE 5 mph 8.7 mph 91% 0 in 0 W/m2
04:55 46.4 °F 44.6 °F 29.3 in SE 3.1 mph 8.1 mph 91% 0 in 0 W/m2
05:00 46.4 °F 44.6 °F 29.3 in SE 3.1 mph 8.1 mph 91% 0 in 0 W/m2
05:05 46.4 °F 44.6 °F 29.3 in SSE 5 mph 8.1 mph 91% 0 in 0 W/m2
05:10 46.4 °F 44.6 °F 29.3 in S 3.1 mph 6.8 mph 92% 0 in 0 W/m2
05:15 48.2 °F 44.6 °F 29.3 in SSE 1.2 mph 6.2 mph 92% 0 in 0 W/m2
05:20 48.2 °F 44.6 °F 29.3 in SE 3.1 mph 6.2 mph 92% 0 in 0 W/m2
05:25 48.2 °F 44.6 °F 29.3 in SSE 1.2 mph 6.2 mph 92% 0 in 0 W/m2
05:30 48.2 °F 46.4 °F 29.3 in Calm   6.2 mph 92% 0 in 0 W/m2
05:35 48.2 °F 46.4 °F 29.3 in SSE 1.2 mph 6.2 mph 92% 0 in 0 W/m2
05:40 48.2 °F 46.4 °F 29.3 in Calm   5 mph 92% 0 in 0 W/m2
05:45 48.2 °F 46.4 °F 29.3 in Calm   5 mph 91% 0 in 0 W/m2
05:50 48.2 °F 46.4 °F 29.3 in Calm   3.1 mph 92% 0 in 0 W/m2
05:55 48.2 °F 46.4 °F 29.3 in Calm   3.7 mph 92% 0 in 0 W/m2
06:00 48.2 °F 46.4 °F 29.3 in Calm   3.1 mph 92% 0 in 0 W/m2
06:05 48.2 °F 46.4 °F 29.3 in Calm   3.1 mph 92% 0 in 0 W/m2
06:10 48.2 °F 46.4 °F 29.3 in Calm   3.1 mph 92% 0 in 0 W/m2
06:15 48.2 °F 46.4 °F 29.3 in Calm   3.1 mph 92% 0 in 0 W/m2
06:20 48.2 °F 46.4 °F 29.3 in Calm   3.7 mph 92% 0 in 0 W/m2
06:25 48.2 °F 46.4 °F 29.3 in Calm   3.7 mph 92% 0 in 0 W/m2
06:30 48.2 °F 46.4 °F 29.3 in Calm   3.7 mph 92% 0 in 0 W/m2
06:35 48.2 °F 46.4 °F 29.3 in Calm   3.1 mph 92% 0 in 0 W/m2
06:40 48.2 °F 46.4 °F 29.3 in Calm   3.1 mph 92% 0 in 0 W/m2
06:45 48.2 °F 46.4 °F 29.3 in Calm   3.1 mph 92% 0 in 0 W/m2
06:50 50 °F 46.4 °F 29.3 in Calm   3.1 mph 92% 0 in 0 W/m2
06:55 50 °F 46.4 °F 29.3 in Calm   1.9 mph 92% 0 in 0 W/m2
07:00 50 °F 48.2 °F 29.3 in Calm   1.9 mph 93% 0 in 0 W/m2
07:05 50 °F 48.2 °F 29.3 in Calm   1.2 mph 93% 0 in 0 W/m2
07:10 50 °F 48.2 °F 29.3 in Calm     93% 0 in 0 W/m2
07:15 50 °F 48.2 °F 29.3 in Calm     93% 0 in 0 W/m2
07:20 50 °F 48.2 °F 29.3 in S 1.2 mph 3.1 mph 93% 0 in 0 W/m2
07:25 50 °F 48.2 °F 29.3 in Calm   3.1 mph 93% 0 in 0 W/m2
07:30 50 °F 48.2 °F 29.3 in Calm   1.9 mph 93% 0 in 0 W/m2
07:35 50 °F 48.2 °F 29.3 in Calm   1.9 mph 93% 0 in 0 W/m2
07:40 50 °F 48.2 °F 29.3 in SSW 1.2 mph 3.1 mph 93% 0 in 0 W/m2
07:45 50 °F 48.2 °F 29.3 in Calm   3.1 mph 93% 0 in 0 W/m2
07:50 50 °F 48.2 °F 29.3 in Calm   3.1 mph 93% 0 in 0 W/m2
07:55 50 °F 48.2 °F 29.3 in Calm   3.1 mph 93% 0 in 0 W/m2
08:00 50 °F 48.2 °F 29.3 in Calm     93% 0 in 0 W/m2
08:05 50 °F 21.2 °F 29.3 in S 42.9 mph 57.8 mph 32% 0 in 0 W/m2
08:10 50 °F -5.8 °F 29.3 in S 57.8 mph 57.8 mph 10% 0 in 0 W/m2
08:15 50 °F -5.8 °F 29.3 in S 57.8 mph 57.8 mph 10% 0 in 0 W/m2
08:20 50 °F -5.8 °F 29.3 in S 57.8 mph 57.8 mph 10% 0 in 0 W/m2
08:25 50 °F 39.2 °F 29.3 in S 14.9 mph 57.8 mph 69% 0.02 in 0 W/m2
08:30 48.2 °F 46.4 °F 29.3 in Calm   3.1 mph 93% 0.06 in 0 W/m2
08:35 48.2 °F 46.4 °F 29.3 in NW 1.2 mph 3.1 mph 92% 0 in 0 W/m2
08:40 48.2 °F 46.4 °F 29.3 in NW 1.2 mph 3.1 mph 92% 0 in 0 W/m2
08:45 48.2 °F 46.4 °F 29.3 in Calm   1.9 mph 92% 0 in 0 W/m2
08:50 48.2 °F 46.4 °F 29.3 in Calm   1.9 mph 93% 0 in 0 W/m2
08:55 48.2 °F 46.4 °F 29.3 in Calm   1.9 mph 93% 0 in 0 W/m2
09:00 48.2 °F 46.4 °F 29.3 in Calm   1.9 mph 93% 0 in 0 W/m2
09:05 48.2 °F 46.4 °F 29.3 in Calm   1.9 mph 93% 0 in 0 W/m2
09:10 48.2 °F 46.4 °F 29.3 in SSW 1.2 mph 1.9 mph 93% 0 in 0 W/m2
09:15 48.2 °F 46.4 °F 29.3 in WNW 1.2 mph 1.9 mph 93% 0 in 0 W/m2
09:20 48.2 °F 46.4 °F 29.3 in NW 1.2 mph 57.2 mph 93% 0 in 0 W/m2
09:25 48.2 °F -5.8 °F 29.3 in NW 57.8 mph 57.8 mph 10% 0 in 0 W/m2
09:30 48.2 °F -5.8 °F 29.3 in NW 57.8 mph 57.8 mph 10% 0 in 0 W/m2
09:35 48.2 °F -5.8 °F 29.3 in NW 57.8 mph 57.8 mph 10% 0 in 0 W/m2
09:40 48.2 °F -5.8 °F 29.3 in NW 57.8 mph 57.8 mph 10% 0 in 0 W/m2
09:45 48.2 °F -5.8 °F 29.3 in NW 57.8 mph 57.8 mph 10% 0 in 0 W/m2
09:50 48.2 °F -5.8 °F 29.3 in NW 57.8 mph 57.8 mph 10% 0 in 0 W/m2
09:55 48.2 °F 46.4 °F 29.3 in NW 1.2 mph 57.8 mph 93% 0 in 0 W/m2
10:00 48.2 °F 46.4 °F 29.3 in W 3.1 mph 6.2 mph 91% 0 in 0 W/m2
10:05 48.2 °F 46.4 °F 29.3 in WNW 8.1 mph 11.2 mph 91% 0 in 0 W/m2
10:10 48.2 °F 46.4 °F 29.3 in W 8.7 mph 14.9 mph 91% 0 in 0 W/m2
10:15 48.2 °F 46.4 °F 29.3 in SW 8.7 mph 14.9 mph 91% 0 in 0 W/m2
10:20 48.2 °F -5.8 °F 29.3 in SW 57.8 mph 57.8 mph 10% 0 in 0 W/m2
10:25 50 °F 46.4 °F 29.3 in WSW 8.1 mph 57.8 mph 89% 0 in 0 W/m2
10:30 50 °F 46.4 °F 29.3 in W 6.2 mph 11.8 mph 87% 0 in 0 W/m2
10:35 50 °F 44.6 °F 29.3 in NW 5 mph 9.9 mph 84% 0 in 0 W/m2
10:40 50 °F 44.6 °F 29.3 in NE 5 mph 8.1 mph 84% 0 in 0 W/m2
10:45 50 °F 44.6 °F 29.3 in E 6.2 mph 13 mph 81% 0 in 0 W/m2
10:50 50 °F 44.6 °F 29.3 in SSW 6.2 mph 14.3 mph 81% 0 in 0 W/m2
10:55 50 °F 44.6 °F 29.3 in SSW 6.8 mph 14.9 mph 81% 0 in 0 W/m2
11:00 50 °F 44.6 °F 29.3 in NNW 6.2 mph 14.9 mph 81% 0 in 0 W/m2
11:05 50 °F 44.6 °F 29.3 in W 6.8 mph 9.9 mph 80% 0 in 0 W/m2
11:10 50 °F 44.6 °F 29.3 in SW 6.8 mph 13 mph 80% 0 in 0 W/m2
11:15 51.8 °F 44.6 °F 29.3 in S 5 mph 13 mph 76% 0 in 0 W/m2
11:20 51.8 °F 44.6 °F 29.3 in SE 8.1 mph 14.3 mph 73% 0 in 0 W/m2
Garrymore Weather Station, Geashill, Tullamore, Offaly, Ireland
Compliments of Weather Underground - 2 mb